When you browse on this site, cookies collect data to enhance your experience and personalize the content and advertising you see.
Visit our Privacy Policy to learn more. By continuing to use the site, you agree to this use of cookies and data.
  • In Hungary
  • List of Countries
  • For 7 days
  • Water Temperature
  • Satellite Maps
  • Weather Map
  • News
  • Weather Widgets
  • user-avatar
    Login

    Hourly Weather Niujiapai

    Today, 20 April, Saturday

    Time Temperature Precipitation Wind Pressure Humidity
    00:00 +14°C° 0 mm 2 mps 760 mmHg 15%
    01:00 +14°C° 0 mm 2 mps 760 mmHg 16%
    02:00 +12°C° 0 mm 0 mps 760 mmHg 18%
    03:00 +13°C° 0 mm 1 mps 760 mmHg 20%
    04:00 +13°C° 0 mm 1 mps 759 mmHg 21%
    05:00 +13°C° 0 mm 2 mps 759 mmHg 22%
    06:00 +13°C° 0 mm 2 mps 759 mmHg 25%
    07:00 +13°C° 0 mm 2 mps 759 mmHg 28%
    08:00 +12°C° 0 mm 1 mps 759 mmHg 37%
    09:00 +12°C° 0 mm 1 mps 759 mmHg 36%
    10:00 +13°C° 0 mm 1 mps 759 mmHg 34%
    11:00 +13°C° 0 mm 1 mps 759 mmHg 33%
    12:00 +13°C° 0 mm 1 mps 758 mmHg 32%
    13:00 +14°C° 0 mm 1 mps 758 mmHg 32%
    14:00 +14°C° 0 mm 1 mps 757 mmHg 35%
    15:00 +14°C° 0 mm 1 mps 757 mmHg 36%
    16:00 +15°C° 0 mm 1 mps 757 mmHg 36%
    17:00 +15°C° 0 mm 2 mps 757 mmHg 36%
    18:00 +14°C° 0 mm 2 mps 758 mmHg 39%
    19:00 +14°C° 0 mm 1 mps 758 mmHg 41%
    20:00 +13°C° 0 mm 1 mps 758 mmHg 44%
    21:00 +13°C° 0 mm 1 mps 759 mmHg 45%
    22:00 +13°C° 0 mm 1 mps 760 mmHg 46%
    23:00 +13°C° 0 mm 1 mps 760 mmHg 47%

    Tomorrow, 21 April, Sunday

    Time Temperature Precipitation Wind Pressure Humidity
    00:00 +12°C° 0 mm 1 mps 760 mmHg 49%
    01:00 +12°C° 0 mm 1 mps 760 mmHg 51%
    02:00 +11°C° 0 mm 0 mps 760 mmHg 54%
    03:00 +11°C° 0 mm 1 mps 760 mmHg 58%
    04:00 +11°C° 0 mm 1 mps 761 mmHg 62%
    05:00 +11°C° 0 mm 1 mps 761 mmHg 66%
    06:00 +12°C° 0 mm 1 mps 761 mmHg 61%
    07:00 +14°C° 0 mm 2 mps 762 mmHg 57%
    08:00 +15°C° 0 mm 2 mps 762 mmHg 53%
    09:00 +17°C° 0 mm 3 mps 762 mmHg 43%
    10:00 +19°C° 0 mm 3 mps 762 mmHg 33%
    11:00 +21°C° 0 mm 4 mps 762 mmHg 23%
    12:00 +22°C° 0 mm 4 mps 762 mmHg 22%
    13:00 +23°C° 0 mm 4 mps 761 mmHg 20%
    14:00 +23°C° 0 mm 5 mps 761 mmHg 19%
    15:00 +22°C° 0 mm 5 mps 760 mmHg 20%
    16:00 +21°C° 0 mm 5 mps 760 mmHg 21%
    17:00 +20°C° 0 mm 6 mps 760 mmHg 23%
    18:00 +17°C° 0 mm 5 mps 760 mmHg 27%
    19:00 +15°C° 0 mm 4 mps 760 mmHg 31%
    20:00 +14°C° 0 mm 4 mps 760 mmHg 35%
    21:00 +13°C° 0 mm 3 mps 761 mmHg 38%
    22:00 +12°C° 0 mm 3 mps 761 mmHg 42%
    23:00 +13°C° 0 mm 2 mps 761 mmHg 45%

    Day after tomorrow, 22 April, Monday

    Time Temperature Precipitation Wind Pressure Humidity
    00:00 +12°C° 0 mm 2 mps 761 mmHg 50%
    01:00 +12°C° 0 mm 1 mps 761 mmHg 54%
    02:00 +12°C° 0 mm 1 mps 760 mmHg 58%
    03:00 +11°C° 0 mm 1 mps 760 mmHg 61%
    04:00 +11°C° 0 mm 1 mps 760 mmHg 64%
    05:00 +11°C° 0 mm 1 mps 760 mmHg 67%
    06:00 +12°C° 0 mm 1 mps 760 mmHg 63%
    07:00 +14°C° 0 mm 1 mps 760 mmHg 60%
    08:00 +16°C° 0 mm 1 mps 760 mmHg 56%
    09:00 +18°C° 0 mm 2 mps 760 mmHg 51%
    10:00 +21°C° 0 mm 3 mps 759 mmHg 46%
    11:00 +25°C° 0 mm 3 mps 759 mmHg 40%
    12:00 +26°C° 0 mm 4 mps 758 mmHg 37%
    13:00 +28°C° 0 mm 5 mps 758 mmHg 34%
    14:00 +30°C° 0 mm 5 mps 757 mmHg 30%
    15:00 +30°C° 0 mm 5 mps 756 mmHg 30%
    16:00 +30°C° 0 mm 5 mps 756 mmHg 30%
    17:00 +30°C° 0 mm 6 mps 755 mmHg 31%
    18:00 +28°C° 0 mm 5 mps 755 mmHg 37%
    19:00 +26°C° 0 mm 4 mps 756 mmHg 43%
    20:00 +24°C° 0 mm 3 mps 756 mmHg 50%
    21:00 +23°C° 0 mm 4 mps 756 mmHg 52%
    22:00 +23°C° 0 mm 4 mps 756 mmHg 55%
    23:00 +23°C° 0 mm 4 mps 757 mmHg 57%

    23 April, Tuesday

    Time Temperature Precipitation Wind Pressure Humidity
    00:00 +22°C° 0 mm 4 mps 756 mmHg 61%
    01:00 +21°C° 0 mm 3 mps 756 mmHg 64%
    02:00 +20°C° 0 mm 2 mps 756 mmHg 68%
    03:00 +20°C° 0 mm 2 mps 756 mmHg 71%
    04:00 +19°C° 0 mm 2 mps 756 mmHg 75%
    05:00 +19°C° 0 mm 2 mps 756 mmHg 78%
    06:00 +20°C° 0 mm 2 mps 756 mmHg 73%
    07:00 +21°C° 0 mm 3 mps 757 mmHg 69%
    08:00 +22°C° 0 mm 3 mps 757 mmHg 64%
    09:00 +25°C° 0 mm 3 mps 757 mmHg 59%
    10:00 +26°C° 0 mm 3 mps 758 mmHg 53%
    11:00 +28°C° 0 mm 2 mps 758 mmHg 48%
    12:00 +28°C° 0 mm 3 mps 757 mmHg 45%
    13:00 +29°C° 0 mm 3 mps 757 mmHg 42%
    14:00 +30°C° 0 mm 4 mps 757 mmHg 40%
    15:00 +29°C° 0 mm 4 mps 757 mmHg 41%
    16:00 +28°C° 0 mm 5 mps 756 mmHg 42%
    17:00 +28°C° 0 mm 5 mps 756 mmHg 43%
    18:00 +26°C° 0 mm 5 mps 757 mmHg 49%
    19:00 +23°C° 0 mm 5 mps 757 mmHg 55%
    20:00 +21°C° 0 mm 5 mps 757 mmHg 61%
    21:00 +21°C° 0 mm 5 mps 758 mmHg 63%
    22:00 +20°C° 0 mm 4 mps 758 mmHg 65%
    23:00 +19°C° 0 mm 3 mps 758 mmHg 67%

    24 April, Wednesday

    Time Temperature Precipitation Wind Pressure Humidity
    00:00 +18°C° 0 mm 3 mps 759 mmHg 69%
    01:00 +18°C° 0 mm 2 mps 759 mmHg 71%
    02:00 +17°C° 0 mm 2 mps 759 mmHg 74%
    03:00 +17°C° 0 mm 3 mps 759 mmHg 67%
    04:00 +17°C° 0 mm 4 mps 760 mmHg 61%
    05:00 +17°C° 0 mm 5 mps 760 mmHg 54%
    06:00 +17°C° 0 mm 6 mps 761 mmHg 42%
    07:00 +17°C° 0 mm 6 mps 762 mmHg 31%
    08:00 +18°C° 0 mm 7 mps 763 mmHg 19%
    09:00 +18°C° 0 mm 7 mps 763 mmHg 19%
    10:00 +20°C° 0 mm 7 mps 763 mmHg 19%
    11:00 +20°C° 0 mm 7 mps 764 mmHg 20%
    12:00 +20°C° 0 mm 6 mps 763 mmHg 21%
    13:00 +20°C° 0 mm 5 mps 763 mmHg 22%
    14:00 +19°C° 0 mm 4 mps 762 mmHg 23%
    15:00 +20°C° 0 mm 4 mps 761 mmHg 22%
    16:00 +20°C° 0 mm 4 mps 761 mmHg 21%
    17:00 +20°C° 0 mm 4 mps 760 mmHg 20%
    18:00 +19°C° 0 mm 3 mps 761 mmHg 20%
    19:00 +18°C° 0 mm 3 mps 761 mmHg 20%
    20:00 +17°C° 0 mm 2 mps 761 mmHg 20%
    21:00 +17°C° 0 mm 2 mps 761 mmHg 20%
    22:00 +16°C° 0 mm 1 mps 761 mmHg 21%
    23:00 +16°C° 0 mm 1 mps 761 mmHg 21%

    25 April, Thursday

    Time Temperature Precipitation Wind Pressure Humidity
    00:00 +16°C° 0.1 mm 1 mps 761 mmHg 23%
    01:00 +15°C° 0.1 mm 1 mps 761 mmHg 25%
    02:00 +15°C° 0.1 mm 2 mps 760 mmHg 27%
    03:00 +15°C° 0 mm 2 mps 760 mmHg 27%
    04:00 +15°C° 0 mm 2 mps 760 mmHg 27%
    05:00 +14°C° 0 mm 3 mps 760 mmHg 27%
    06:00 +14°C° 0 mm 3 mps 760 mmHg 27%
    07:00 +14°C° 0 mm 3 mps 760 mmHg 26%
    08:00 +15°C° 0 mm 4 mps 761 mmHg 26%
    09:00 +17°C° 0 mm 4 mps 760 mmHg 24%
    10:00 +17°C° 0 mm 4 mps 760 mmHg 23%
    11:00 +18°C° 0 mm 4 mps 759 mmHg 22%
    12:00 +18°C° 0 mm 4 mps 759 mmHg 23%
    13:00 +18°C° 0 mm 4 mps 758 mmHg 24%
    14:00 +17°C° 0 mm 5 mps 758 mmHg 25%
    15:00 +17°C° 0 mm 4 mps 758 mmHg 29%
    16:00 +15°C° 0 mm 4 mps 757 mmHg 34%
    17:00 +14°C° 0 mm 4 mps 757 mmHg 39%
    18:00 +13°C° 0.1 mm 3 mps 757 mmHg 43%
    19:00 +14°C° 0.1 mm 1 mps 758 mmHg 47%
    20:00 +12°C° 0.1 mm 0 mps 758 mmHg 51%
    21:00 +11°C° 0 mm 0 mps 758 mmHg 53%
    22:00 +11°C° 0 mm 0 mps 758 mmHg 55%
    23:00 +10°C° 0 mm 0 mps 758 mmHg 57%
    Show more